Location: Ahstedt
(52.2048°N, 10.1060°E)
Time: 00:03:54
(UTC+00:00)

Cosmos 921 Rocket - Pass Details

Date: 18 January 2026
Orbit: 564 x 620 km, 75.8° (Epoch: 17 February)

Event Time Altitude Azimuth Distance (km) Brightness Sun altitude
Exits shadow 05:21:50 32° 252° (WSW) 1,026 3.7 -17.3°
Maximum altitude 05:23:15 43° 298° (WNW) 830 3.2 -17.1°
Drops below altitude 10° 05:27:17 10° 11° (N) 1,897 5.5 -16.5°
Sets 05:29:34 0° 19° (NNE) 2,793 6.5 -16.1°
